VA7GFZ-13 Weather Reports


time (UTC)temp
C
wind
direction
speed
KPH
gust
KPH
rain 1hr
cm
rain 24hr
cm
rain mn
cm
humidity
%
barometer
mb
20260503200041 20 260 0.0 8.0 0.00 0.00 0.00 100
20260503195041 20 14 8.0 8.0 0.00 0.00 0.00 100
20260503194041 20 174 0.0 3.2 0.00 0.00 0.00 100
20260503193041 19 203 0.0 20.9 0.00 0.00 0.00 100
20260503192041 18 230 0.0 0.0 0.00 0.00 0.00 100
20260503191044 17 230 0.0 0.0 0.00 0.00 0.00 100
20260503190041 17 230 0.0 0.0 0.00 0.00 0.00 100
20260503185041 16 230 0.0 0.0 0.00 0.00 0.00 100
20260503184041 15 230 0.0 0.0 0.00 0.00 0.00 100
20260503183041 15 230 0.0 3.2 0.00 0.00 0.00 100
20260503182041 14 330 0.0 0.0 0.00 0.00 0.00 100
20260503181042 14 330 0.0 0.0 0.00 0.00 0.00 100
20260503180042 13 330 0.0 0.0 0.00 0.00 0.00 100
20260503175042 12 330 0.0 0.0 0.00 0.00 0.00 100
20260503174042 11 330 0.0 0.0 0.00 0.00 0.00 100
20260503171054 9 330 0.0 0.0 0.00 0.00 0.00 100
20260503072045 4 330 0.0 0.0 0.00 0.00 0.00 100
20260503071043 4 330 0.0 0.0 0.00 0.00 0.00 100
20260503055045 7 330 0.0 0.0 0.00 0.00 0.00 100
20260503053043 7 330 0.0 0.0 0.00 0.00 0.00 100
20260503052045 8 330 0.0 0.0 0.00 0.00 0.00 100
20260503051045 8 330 0.0 0.0 0.00 0.00 0.00 100
20260503050047 11 330 0.0 0.0 0.00 0.00 0.00 100
20260503045045 11 330 0.0 0.0 0.00 0.00 0.00 100
20260503044046 10 315 0.0 0.0 0.00 0.00 0.00 100
20260503034045 13 333 0.0 3.2 0.00 0.00 0.00 100
20260503033045 14 326 0.0 6.4 0.00 0.00 0.00 100
20260503030046 15 194 0.0 0.0 0.00 0.00 0.00 100
20260503025046 16 310 0.0 0.0 0.00 0.00 0.00 100
20260503024046 16 310 0.0 0.0 0.00 0.00 0.00 100
20260503014054 18 177 0.0 0.0 0.00 0.00 0.00 100
20260503013051 19 177 0.0 11.3 0.00 0.00 0.00 100
20260503012048 19 191 0.0 6.4 0.00 0.00 0.00 100
20260503004043 20 171 0.0 0.0 0.00 0.00 0.00 100
20260503002045 20 171 0.0 0.0 0.00 0.00 0.00 100
20260503000051 20 237 0.0 6.4 0.00 0.00 0.00 100
20260502233051 21 192 4.8 6.4 0.00 0.00 0.00 100
20260502225050 21 292 0.0 0.0 0.00 0.00 0.00 100
20260502224049 21 292 0.0 0.0 0.00 0.00 0.00 100
20260502222048 21 292 0.0 0.0 0.00 0.00 0.00 100
20260502213046 21 292 0.0 0.0 0.00 0.00 0.00 100
20260502212051 20 292 0.0 0.0 0.00 0.00 0.00 100
20260502203047 19 292 0.0 0.0 0.00 0.00 0.00 100
20260502202109 18 292 0.0 0.0 0.00 0.00 0.00 100
20260502201048 17 292 0.0 0.0 0.00 0.00 0.00 100